Location: Newark
(42.7133°N, 87.7910°W)
Time: 10:26:14
(UTC+00:00)

Envisat - Pass Details

Date: 01 September 2019
Orbit: 764 x 766 km, 98.1° (Epoch: 16 September)

Event Time Altitude Azimuth Distance (km) Brightness Sun altitude
Rises 01:05:18 0° 201° (SSW) 3,218 6.3 -7.5°
Reaches altitude 10° 01:08:04 10° 216° (SW) 2,297 5.7 -8.0°
Maximum altitude 01:12:00 22° 267° (W) 1,610 5.7 -8.7°
Drops below altitude 10° 01:15:56 10° 318° (NW) 2,309 6.6 -9.3°
Sets 01:18:45 0° 334° (NNW) 3,240 7.1 -9.8°
